Location: Pasarilla del Rebollar
(40.6790°N, 5.0062°W)
Time: 11:16:39
(UTC+00:00)

Meteor 1-19 Rocket - Pass Details

Date: 22 April 2026
Orbit: 807 x 925 km, 81.2° (Epoch: 15 May)

Event Time Altitude Azimuth Distance (km) Brightness Sun altitude
Exits shadow 03:04:30 60° 267° (W) 939 4.1 -24.7°
Maximum altitude 03:04:47 61° 282° (WNW) 933 4.2 -24.7°
Drops below altitude 10° 03:10:17 10° 3° (N) 2,463 7.2 -23.9°
Sets 03:12:46 0° 7° (N) 3,419 8.1 -23.6°
